[[{"header":{"parameterUnit":"m.s-1","parameterCategory":1,"la1":30.2991,"la2":30.254,"lo1":-89.0895,"lo2":-89.0444,"dy":0.0017,"dx":0.0017,"nx":28,"ny":28,"refTime":"2025-05-31T09:00:00:Z","depth":0,"parameterNumber":2,"parameterNumberName":"U-component_of_WINDS"},"data":[0,0,0,0,0,0,0,0,0,0,0,0,0,0,0,0,0,0,0,0,0,0,0,0,0,0,0,0,0,0,0,0,0,0,0,0,0,0,0,0,0,0,0,0,0,0,0,0,0,0,0,0,0,0,0,0,0,0,-0.2385,-0.2384,0,-0.2306,-0.2305,-0.2304,-0.2263,-0.2263,-0.2263,-0.2263,-0.2179,-0.2177,-0.2175,0,0,0,0,0,0,0,0,0,0,0,0,0,-0.2494,-0.2492,-0.2385,-0.2384,-0.2383,-0.2306,-0.2305,-0.2304,-0.2263,-0.2263,-0.2263,-0.2263,-0.218,-0.2178,-0.2175,0,0,0,0,0,0,0,0,0,0,0,0,0,-0.2434,-0.2492,-0.2385,-0.2353,-0.235,-0.2306,-0.2305,-0.2304,-0.2263,-0.2263,-0.2263,-0.2263,-0.2181,-0.2178,-0.2175,-0.2155,0,0,-0.2164,-0.2163,0,0,0,0,0,0,0,0,-0.2438,-0.243,-0.2359,-0.2356,-0.2351,-0.2295,-0.2313,-0.2254,-0.2264,-0.2296,-0.2263,-0.2263,-0.2218,-0.2211,-0.2196,-0.2151,-0.2148,-0.2164,-0.2162,-0.2161,-0.216,0,0,0,0,0,0,0,-0.2442,-0.2433,-0.2353,-0.2358,-0.2353,-0.2341,-0.2333,-0.2301,-0.2258,-0.2293,-0.229,-0.2282,-0.2215,-0.22,-0.2194,-0.2147,-0.2164,-0.2161,-0.2159,-0.2158,-0.2076,-0.2076,0,0,0,0,0,0,-0.2452,-0.2437,-0.2356,-0.2351,-0.2395,-0.2339,-0.233,-0.2313,-0.2258,-0.225,-0.2282,-0.228,-0.2205,-0.2198,-0.2191,-0.2162,-0.2161,-0.2158,-0.2156,-0.2077,-0.2076,-0.2076,0,0,0,0,0,0,-0.2454,-0.2445,-0.2359,-0.2393,-0.2381,-0.2338,-0.2319,-0.2311,-0.2296,-0.225,-0.2241,-0.2274,-0.2205,-0.2196,-0.2164,-0.2159,-0.2156,-0.2153,-0.2077,-0.2077,-0.2076,-0.2106,0,0,0,0,0,0,-0.2457,-0.2446,-0.244,-0.2393,-0.238,-0.2335,-0.2319,-0.231,-0.229,-0.2287,-0.224,-0.2232,-0.2204,-0.2169,-0.216,-0.2154,-0.2151,-0.2077,-0.2077,-0.2076,-0.2105,-0.2106,-0.2108,0,0,0,0,0,-0.2462,-0.2452,-0.244,-0.243,-0.2371,-0.2335,-0.2327,-0.2296,-0.229,-0.2282,-0.2252,-0.2234,-0.2161,-0.2166,-0.2156,-0.2149,-0.2077,-0.2077,-0.2076,-0.2104,-0.2106,-0.2108,0,0,0,0,0,0,-0.2499,-0.2445,-0.2432,-0.2407,-0.2376,-0.2328,-0.2318,-0.23,-0.2269,-0.2267,-0.2229,-0.2218,-0.2189,-0.2166,-0.2172,-0.2125,-0.2117,-0.2114,-0.2141,-0.2143,-0.2144,-0.215,-0.2148,0,0,0,0,0,-0.2504,-0.2481,-0.2434,-0.2417,-0.2402,-0.2362,-0.2345,-0.2324,-0.229,-0.2276,-0.2244,-0.221,-0.2179,-0.216,-0.2129,-0.2101,-0.2088,-0.2091,-0.2092,-0.2093,-0.2092,-0.2071,-0.2071,-0.2075,-0.2075,-0.2075,0,0,-0.2515,-0.2483,-0.247,-0.2423,-0.2397,-0.2371,-0.2352,-0.2326,-0.2306,-0.2272,-0.2239,-0.2214,-0.2173,-0.2143,-0.2127,-0.2122,-0.2087,-0.2093,-0.2094,-0.2092,-0.207,-0.207,-0.207,-0.2075,-0.2075,-0.2075,0,0,-0.2521,-0.2495,-0.2476,-0.245,-0.2409,-0.2383,-0.2378,-0.2332,-0.2314,-0.2281,-0.2254,-0.2228,-0.2177,-0.2148,-0.2126,-0.2117,-0.2097,-0.2108,-0.2115,-0.2095,-0.2095,-0.2094,-0.2088,-0.2087,-0.2106,-0.2106,-0.2106,0,-0.2539,-0.2501,-0.2469,-0.2443,-0.2422,-0.239,-0.2368,-0.2344,-0.2295,-0.228,-0.2275,-0.2207,-0.2178,-0.2138,-0.2135,-0.212,-0.211,-0.2113,-0.2098,-0.2097,-0.2096,-0.2089,-0.2087,-0.2107,-0.2107,-0.2107,-0.2107,0,-0.2524,-0.2497,-0.2486,-0.244,-0.2417,-0.2394,-0.2356,-0.2336,-0.2315,-0.2288,-0.2252,-0.2215,-0.2175,-0.2164,-0.2144,-0.2119,-0.2117,-0.2106,-0.2097,-0.2097,-0.209,-0.2088,-0.2109,-0.2109,-0.2109,-0.2108,0,0,-0.2553,-0.2487,-0.2483,-0.246,-0.2412,-0.239,-0.2363,-0.2324,-0.2306,-0.2273,-0.2248,-0.2203,-0.219,-0.2166,-0.2142,-0.2125,-0.2116,-0.2115,-0.2113,-0.2114,-0.2082,-0.209,-0.2089,-0.2103,-0.2102,-0.2102,-0.2085,0,-0.2551,-0.2504,-0.2472,-0.2437,-0.241,-0.2377,-0.2353,-0.2319,-0.2292,-0.2263,-0.2233,-0.2201,-0.2188,-0.2173,-0.2154,-0.2121,-0.2109,-0.2122,-0.2076,-0.2075,-0.2086,-0.2085,-0.2095,-0.2081,-0.2082,-0.2082,-0.2082,0,-0.2543,-0.251,-0.2472,-0.2423,-0.241,-0.239,-0.2349,-0.2323,-0.2282,-0.2263,-0.2234,-0.2209,-0.2176,-0.217,-0.2123,-0.2132,-0.2111,-0.2091,-0.209,-0.2083,-0.2078,-0.2077,-0.2076,-0.2074,-0.2078,-0.2078,-0.2078,0,-0.2566,-0.2512,-0.2481,-0.2463,-0.2405,-0.2391,-0.2366,-0.2326,-0.2302,-0.2266,-0.225,-0.221,-0.2188,-0.2156,-0.2119,-0.2118,-0.2074,-0.2065,-0.2054,-0.2055,-0.2047,-0.2047,-0.2041,-0.2036,-0.2036,-0.2036,-0.2036,0,-0.2566,-0.2544,-0.249,-0.2471,-0.2443,-0.2405,-0.2378,-0.235,-0.2313,-0.2285,-0.2254,-0.2229,-0.2183,-0.215,-0.2121,-0.2084,-0.2075,-0.2056,-0.2048,-0.2058,-0.206,-0.2043,-0.2043,-0.2035,-0.2035,-0.2035,-0.2035,0,-0.2587,-0.2551,-0.2515,-0.2462,-0.2448,-0.243,-0.2384,-0.2362,-0.2332,-0.2298,-0.2287,-0.224,-0.22,-0.216,-0.2106,-0.2086,-0.2049,-0.2039,-0.2063,-0.2058,-0.2049,-0.2049,-0.203,-0.2024,-0.2025,-0.2025,-0.2025,0,-0.259,-0.2571,-0.2516,-0.2496,-0.2472,-0.244,-0.2416,-0.2376,-0.2352,-0.2302,-0.2285,-0.2243,-0.2207,-0.2144,-0.2103,-0.2061,-0.2049,-0.2044,-0.2042,-0.2051,-0.2045,-0.2046,-0.2043,-0.2046,-0.2046,-0.2046,-0.2046,0,-0.2597,-0.2579,-0.2546,-0.2506,-0.2478,-0.2444,-0.2409,-0.2393,-0.2346,-0.232,-0.2279,-0.2251,-0.2194,-0.2151,-0.2103,-0.2075,-0.2051,-0.2047,-0.2042,-0.2051,-0.2064,-0.2054,-0.2064,-0.2048,-0.2048,-0.2047,-0.2047,-0.2047,-0.2607,-0.2588,-0.2545,-0.2508,-0.2478,-0.2444,-0.2421,-0.2387,-0.2352,-0.2304,-0.2282,-0.224,-0.2194,-0.2128,-0.2099,-0.2063,-0.2057,-0.205,-0.2048,-0.2047,-0.2047,-0.2071,-0.2054,-0.2054,-0.2054,-0.2054,-0.2054,0,-0.2611,-0.2581,-0.2548,-0.2499,-0.2469,-0.245,-0.2409,-0.2384,-0.2348,-0.2308,-0.2273,-0.2223,-0.218,-0.2135,-0.2088,-0.2068,-0.2056,-0.2057,-0.2057,-0.205,-0.2057,-0.2065,-0.2067,-0.2067,-0.2067,-0.2067,-0.2067,-0.2067,-0.2609,-0.2574,-0.2551,-0.2498,-0.2468,-0.2427,-0.2404,-0.2372,-0.234,-0.2286,-0.2251,-0.2222,-0.2178,-0.2127,-0.2086,-0.2073,-0.2056,-0.206,-0.2044,-0.2051,-0.205,-0.205,-0.2057,-0.2058,-0.2058,-0.204,-0.204,-0.204]},{"header":{"parameterUnit":"m.s-1","parameterCategory":1,"la1":30.2991,"la2":30.254,"lo1":-89.0895,"lo2":-89.0444,"dy":0.0017,"dx":0.0017,"nx":28,"ny":28,"refTime":"2025-05-31T09:00:00:Z","depth":0,"parameterNumber":3,"parameterNumberName":"V-component_of_WINDS"},"data":[0,0,0,0,0,0,0,0,0,0,0,0,0,0,0,0,0,0,0,0,0,0,0,0,0,0,0,0,0,0,0,0,0,0,0,0,0,0,0,0,0,0,0,0,0,0,0,0,0,0,0,0,0,0,0,0,0,0,-1.8138,-1.8137,0,-1.809,-1.809,-1.8089,-1.8123,-1.8124,-1.8126,-1.8127,-1.8074,-1.8071,-1.8068,0,0,0,0,0,0,0,0,0,0,0,0,0,-1.8251,-1.8249,-1.8138,-1.8137,-1.8137,-1.809,-1.809,-1.8089,-1.8123,-1.8124,-1.8126,-1.8128,-1.8075,-1.8072,-1.8068,0,0,0,0,0,0,0,0,0,0,0,0,0,-1.8202,-1.8248,-1.8138,-1.8148,-1.8148,-1.809,-1.809,-1.8089,-1.8122,-1.8124,-1.8127,-1.8129,-1.8076,-1.8072,-1.8068,-1.7996,0,0,-1.8055,-1.8053,0,0,0,0,0,0,0,0,-1.8205,-1.8198,-1.8147,-1.8147,-1.8148,-1.8115,-1.811,-1.8057,-1.8122,-1.8132,-1.8127,-1.813,-1.8085,-1.8081,-1.8066,-1.7993,-1.7991,-1.8054,-1.8052,-1.805,-1.8049,0,0,0,0,0,0,0,-1.8208,-1.82,-1.8119,-1.8146,-1.8147,-1.8153,-1.8148,-1.81,-1.8096,-1.8131,-1.8134,-1.8128,-1.8086,-1.807,-1.8065,-1.799,-1.8054,-1.8051,-1.8048,-1.8046,-1.7848,-1.7846,0,0,0,0,0,0,-1.8212,-1.8203,-1.812,-1.8117,-1.8183,-1.8149,-1.8144,-1.8123,-1.8097,-1.8095,-1.8126,-1.8129,-1.8077,-1.807,-1.8064,-1.7972,-1.805,-1.8046,-1.8043,-1.7851,-1.7848,-1.7845,0,0,0,0,0,0,-1.8214,-1.8204,-1.8122,-1.8161,-1.8151,-1.8144,-1.8121,-1.8121,-1.8105,-1.8093,-1.8092,-1.8111,-1.8078,-1.807,-1.8011,-1.7971,-1.8044,-1.804,-1.7854,-1.785,-1.7846,-1.7792,0,0,0,0,0,0,-1.8217,-1.8205,-1.8179,-1.816,-1.8149,-1.8072,-1.8118,-1.8118,-1.8098,-1.8103,-1.8079,-1.8077,-1.8079,-1.8017,-1.8007,-1.7966,-1.8037,-1.7858,-1.7852,-1.7848,-1.7797,-1.7787,-1.7778,0,0,0,0,0,-1.8221,-1.8166,-1.8178,-1.8168,-1.8117,-1.807,-1.8063,-1.8069,-1.8095,-1.8067,-1.8059,-1.8078,-1.7978,-1.8011,-1.8,-1.7957,-1.786,-1.7854,-1.7848,-1.7802,-1.7789,-1.7778,0,0,0,0,0,0,-1.818,-1.8164,-1.8177,-1.8114,-1.8093,-1.8076,-1.8042,-1.8056,-1.8026,-1.8031,-1.8037,-1.8031,-1.7968,-1.7958,-1.7995,-1.7883,-1.7923,-1.7914,-1.7892,-1.7879,-1.7869,-1.7871,-1.8033,0,0,0,0,0,-1.8164,-1.813,-1.8117,-1.8063,-1.8052,-1.8048,-1.8029,-1.8034,-1.8012,-1.8003,-1.799,-1.7966,-1.7929,-1.7905,-1.787,-1.7797,-1.7789,-1.7762,-1.7752,-1.7744,-1.7735,-1.7689,-1.7675,-1.7825,-1.7825,-1.7825,0,0,-1.813,-1.8117,-1.8095,-1.8054,-1.8039,-1.7999,-1.8041,-1.7999,-1.7968,-1.7996,-1.7938,-1.7928,-1.7902,-1.7834,-1.7804,-1.7823,-1.7692,-1.7737,-1.773,-1.7725,-1.7681,-1.7667,-1.7654,-1.7821,-1.7822,-1.7822,0,0,-1.8047,-1.8036,-1.7987,-1.797,-1.7946,-1.7943,-1.7932,-1.7911,-1.7905,-1.7849,-1.7867,-1.783,-1.7768,-1.7746,-1.7727,-1.7632,-1.7645,-1.7621,-1.7567,-1.7522,-1.751,-1.7499,-1.7459,-1.7445,-1.7613,-1.7613,-1.7612,0,-1.8006,-1.795,-1.796,-1.7914,-1.7893,-1.7918,-1.7865,-1.7849,-1.7814,-1.7797,-1.7821,-1.7739,-1.7724,-1.7648,-1.7624,-1.761,-1.7592,-1.7621,-1.7511,-1.7501,-1.7491,-1.7452,-1.7438,-1.7609,-1.761,-1.761,-1.761,0,-1.7899,-1.7859,-1.7822,-1.7787,-1.7763,-1.7714,-1.7713,-1.7687,-1.7695,-1.7688,-1.7627,-1.7609,-1.7568,-1.7552,-1.756,-1.7476,-1.7487,-1.7511,-1.755,-1.7473,-1.7436,-1.7422,-1.7604,-1.7606,-1.7607,-1.7607,0,0,-1.7787,-1.7756,-1.7742,-1.7724,-1.7698,-1.7665,-1.7617,-1.7578,-1.7552,-1.7528,-1.7482,-1.7428,-1.7448,-1.7426,-1.7431,-1.7392,-1.7309,-1.742,-1.7419,-1.7394,-1.7208,-1.7186,-1.7169,-1.7321,-1.7318,-1.7316,-1.7208,0,-1.7697,-1.7612,-1.7618,-1.7537,-1.7496,-1.7518,-1.7474,-1.7451,-1.7444,-1.7407,-1.7399,-1.7357,-1.7391,-1.7376,-1.734,-1.7328,-1.7271,-1.7336,-1.7273,-1.7271,-1.7273,-1.7151,-1.7128,-1.7027,-1.7194,-1.7192,-1.719,0,-1.7581,-1.755,-1.7465,-1.744,-1.7423,-1.7384,-1.7346,-1.7312,-1.7285,-1.7282,-1.7256,-1.7266,-1.7212,-1.7257,-1.7179,-1.7223,-1.7198,-1.7188,-1.7184,-1.7173,-1.7222,-1.7131,-1.6996,-1.6978,-1.7169,-1.7171,-1.7172,0,-1.7499,-1.7438,-1.7377,-1.7362,-1.7333,-1.7304,-1.729,-1.7266,-1.724,-1.7207,-1.7189,-1.715,-1.7127,-1.7095,-1.7092,-1.7126,-1.7011,-1.7057,-1.7002,-1.7001,-1.6973,-1.6973,-1.6825,-1.6967,-1.6967,-1.6968,-1.6968,0,-1.7395,-1.734,-1.7339,-1.7301,-1.7238,-1.7245,-1.7182,-1.7171,-1.7149,-1.7106,-1.7124,-1.7083,-1.7085,-1.7042,-1.7041,-1.6972,-1.6964,-1.6956,-1.6955,-1.695,-1.695,-1.693,-1.6934,-1.6964,-1.6965,-1.6965,-1.6966,0,-1.7291,-1.7289,-1.7223,-1.7201,-1.7194,-1.7148,-1.7127,-1.7089,-1.7084,-1.7029,-1.7016,-1.7006,-1.6956,-1.6952,-1.6895,-1.6893,-1.6808,-1.6819,-1.6817,-1.6816,-1.6759,-1.6762,-1.6587,-1.6561,-1.6727,-1.6725,-1.6724,0,-1.7222,-1.7179,-1.7152,-1.7125,-1.7109,-1.7067,-1.704,-1.7044,-1.7015,-1.6979,-1.6943,-1.6896,-1.6857,-1.6776,-1.6761,-1.6716,-1.672,-1.6663,-1.6713,-1.6708,-1.6711,-1.671,-1.6703,-1.665,-1.6649,-1.6647,-1.6646,0,-1.7096,-1.7096,-1.7058,-1.7018,-1.6986,-1.6954,-1.6925,-1.6901,-1.6901,-1.6867,-1.6816,-1.6786,-1.6727,-1.6676,-1.6631,-1.6614,-1.6627,-1.6631,-1.6614,-1.6606,-1.6604,-1.6597,-1.6783,-1.6634,-1.6635,-1.6636,-1.6636,-1.6637,-1.7003,-1.6964,-1.6937,-1.6892,-1.687,-1.6842,-1.6803,-1.6791,-1.675,-1.6701,-1.6707,-1.6649,-1.6618,-1.6559,-1.6538,-1.649,-1.6509,-1.6487,-1.648,-1.6473,-1.6463,-1.6617,-1.6483,-1.6483,-1.6484,-1.6484,-1.6484,0,-1.6872,-1.6855,-1.6814,-1.6772,-1.6735,-1.6754,-1.6722,-1.6688,-1.6637,-1.6609,-1.657,-1.6508,-1.6459,-1.644,-1.6391,-1.6356,-1.636,-1.6342,-1.6341,-1.6335,-1.6453,-1.6469,-1.6339,-1.6339,-1.6339,-1.6339,-1.6339,-1.6339,-1.6799,-1.6732,-1.6728,-1.6649,-1.6633,-1.6576,-1.6555,-1.6526,-1.6503,-1.6434,-1.6393,-1.6382,-1.6355,-1.6303,-1.6257,-1.6252,-1.623,-1.6207,-1.6204,-1.6314,-1.6328,-1.6342,-1.6356,-1.6204,-1.6204,-1.609,-1.6088,-1.6088]}]]